Dewpoint
23 16 17 17 17 18 23 32 33 30 30 30 31 36 37 36 46 54 54 57 58 56 56 55 57 58 61 62 64 65 65 65 65 64 63 63 55 52 50 51 52 53 51 52 52 51 52 52 52 55 57 58 58 63 63 63 64 64 65 68 69 70 71 72 72 71 70 69 71 70 67 70 71 74 73 72 72 72 72 73 75 76 76 78 77 77
22 16 13 15 14 17 19 25 31 31 29 31 32 32 35 35 38 47 53 56 55 54 53 56 56 59 61 64 65 65 65 64 64 62 64 63 56 53 52 52 52 52 51 52 53 50 52 52 53 55 57 61 58 63 63 64 65 66 65 67 67 70 71 72 71 73 71 72 71 69 67 69 71 73 73 72 73 72 72 76 77 77 75 78 77 78
21 18 12 14 16 16 19 21 25 29 31 33 33 32 34 36 36 46 51 53 50 49 55 53 56 59 61 64 65 65 64 64 64 62 64 61 61 57 53 52 52 51 52 51 52 52 53 52 54 56 56 58 59 61 62 63 65 66 69 71 71 70 71 71 72 72 73 73 73 70 69 69 70 72 72 71 72 74 73 74 76 78 77 77 76 77
19 19 17 15 19 16 14 15 21 30 33 28 31 33 32 35 36 36 45 52 49 49 47 53 53 58 62 62 61 60 64 64 66 66 68 68 67 63 55 53 52 51 53 52 54 52 52 52 56 56 57 59 60 63 62 63 66 65 71 71 72 72 71 72 72 72 72 73 74 75 73 71 70 71 73 74 73 74 73 73 75 77 78 77 76 74
17 19 18 16 19 17 14 17 20 26 28 32 31 32 33 32 37 36 49 48 50 47 48 48 50 50 51 50 51 59 57 64 66 65 65 68 67 65 66 57 56 51 53 53 54 52 54 53 56 57 59 58 60 62 63 63 64 64 67 71 72 73 72 72 73 74 74 74 74 75 75 75 74 74 74 72 72 73 74 74 76 76 77 77 75 76
17 18 18 16 19 18 21 25 24 29 30 32 32 33 34 34 31 34 51 44 48 47 48 47 45 47 45 45 46 53 61 65 66 66 65 65 66 66 65 61 56 58 53 54 54 52 55 53 57 58 60 58 60 62 63 63 63 65 68 71 73 73 73 71 73 74 75 74 75 75 74 74 72 72 73 72 71 71 72 71 72 74 74 75 76 76
17 17 16 15 19 20 25 33 33 35 33 31 30 34 33 34 33 34 35 38 37 41 47 47 40 48 56 45 49 52 58 63 65 64 64 65 65 66 63 65 56 52 53 53 54 52 54 56 58 57 58 58 59 61 62 63 64 67 69 71 72 73 73 72 74 75 75 74 75 73 70 71 72 73 72 76 72 73 72 74 73 74 74 77 74 74
19 17 15 14 18 27 30 33 33 32 32 29 26 31 31 33 34 32 31 31 34 35 43 46 39 47 51 53 58 59 59 61 62 64 64 66 66 64 65 67 61 54 54 54 54 54 55 57 58 58 59 58 59 60 61 62 63 69 72 71 73 73 73 73 73 75 75 75 75 74 73 72 73 69 73 74 74 73 76 76 72 73 73 76 76 75
17 17 15 13 23 30 31 32 30 31 30 28 28 28 30 32 33 33 32 29 30 34 36 37 39 47 50 54 56 57 55 54 60 61 62 65 66 66 65 65 63 56 55 54 53 54 54 57 57 59 59 58 59 59 59 62 65 69 71 72 73 73 74 74 74 75 75 76 75 74 72 73 73 72 73 73 73 74 74 75 75 75 74 77 77 76
15 16 18 24 28 28 30 30 28 25 28 27 27 29 29 31 32 32 31 30 32 33 34 35 35 44 47 52 54 55 56 55 58 60 62 63 63 67 67 65 66 65 64 64 55 55 55 57 58 59 58 57 58 59 60 61 63 67 71 72 73 73 73 74 74 75 75 75 75 74 74 73 74 73 73 73 75 75 76 76 76 78 77 75 76 75
13 26 34 27 26 29 28 28 25 24 28 26 26 28 28 28 31 33 33 35 33 31 34 30 39 41 46 50 51 53 53 53 55 58 60 63 63 63 66 65 64 64 63 64 65 56 56 57 59 59 58 59 59 60 60 60 63 67 70 71 73 73 73 74 75 75 75 74 75 74 74 73 72 74 73 75 75 76 76 76 74 75 77 75 74 73
19 19 29 30 31 28 26 20 25 26 28 27 26 27 27 30 30 32 32 34 31 30 32 30 40 35 41 50 52 53 54 55 57 57 59 61 62 65 66 67 66 68 67 66 66 67 57 59 59 59 60 59 61 60 60 60 63 68 70 71 73 74 74 74 74 75 73 73 74 74 74 74 74 73 71 73 73 74 75 75 76 77 77 77 75 76
22 25 26 29 35 28 25 24 24 29 30 28 26 26 26 28 29 26 29 27 28 29 31 30 37 42 47 49 51 53 54 56 58 57 58 60 62 66 67 67 68 68 67 67 67 67 65 58 59 58 62 63 65 64 63 61 62 66 70 72 73 73 74 74 75 75 74 74 74 74 74 75 75 74 74 74 74 74 75 75 75 77 76 77 76 75
23 25 27 27 26 30 28 19 24 26 28 27 27 25 24 25 25 25 26 28 27 27 29 30 44 46 49 50 51 52 51 53 56 59 61 62 64 64 66 66 67 69 69 68 67 68 67 64 58 60 62 62 63 61 61 61 64 67 68 73 72 74 74 75 75 74 75 74 74 75 74 74 76 75 74 74 72 72 75 76 75 74 74 76 75 73
19 21 23 24 21 27 26 24 20 18 25 25 25 19 26 27 22 24 24 23 24 27 28 37 38 45 46 51 53 50 52 53 54 59 62 63 65 67 66 68 68 68 69 69 67 67 68 65 65 60 61 61 60 59 60 61 66 68 69 73 73 74 74 75 75 75 75 73 73 74 74 74 75 74 74 74 73 74 73 72 72 75 74 74 74 75
17 15 19 23 20 25 25 26 26 19 17 22 24 24 23 23 23 18 20 19 21 22 25 30 45 46 48 49 50 50 51 52 53 56 61 62 63 67 66 66 68 69 69 69 68 68 69 67 67 65 63 61 60 63 60 61 66 67 70 73 74 74 73 74 76 75 74 74 73 74 74 74 74 75 74 76 76 75 73 74 74 76 77 75 75 76
17 13 19 21 18 15 23 26 25 19 16 18 22 23 22 21 18 19 19 18 18 21 34 42 44 46 48 50 47 51 50 50 53 55 57 59 61 65 65 67 67 69 69 68 70 68 67 68 69 65 66 61 60 60 61 66 66 68 71 71 74 74 73 74 75 75 74 75 74 74 74 73 74 72 72 70 71 67 70 73 73 73 72 74 76 75
14 13 15 15 14 17 21 25 19 17 18 17 14 14 15 15 14 21 18 26 15 12 38 40 42 43 45 48 52 50 47 49 51 52 56 57 57 59 60 62 65 67 68 69 69 68 68 69 67 65 65 65 67 66 62 68 65 69 70 71 72 74 74 73 73 73 73 74 74 74 73 74 72 71 69 70 69 69 71 73 73 71 73 72 71 71
15 13 13 13 12 13 15 16 15 17 18 16 15 19 16 18 16 23 22 20 19 14 37 46 42 42 46 46 48 47 47 47 50 52 54 55 57 58 59 60 61 62 67 67 69 69 69 68 69 71 68 67 69 73 70 70 63 64 66 70 72 73 72 72 72 73 73 73 71 71 72 72 72 71 70 70 71 71 69 67 69 69 71 70 74 76
16 12 12 14 13 13 14 13 14 14 17 18 19 17 17 18 17 20 22 25 25 15 34 41 40 46 50 52 49 53 53 47 49 52 54 55 56 57 58 59 60 61 62 65 67 66 67 67 68 67 69 71 71 71 72 72 72 63 64 69 71 71 73 73 72 73 73 72 71 70 73 74 74 73 72 71 72 69 68 68 68 68 67 69 70 72
16 24 15 12 12 14 14 12 9 12 14 16 16 16 15 16 18 16 18 21 23 24 27 37 39 45 50 54 52 48 51 50 50 50 51 53 56 56 57 58 59 60 62 64 65 66 67 68 66 69 72 73 71 71 71 73 73 72 71 70 71 72 71 71 72 71 73 73 72 72 73 71 73 70 70 69 69 69 69 69 69 67 66 70 69 71
20 16 17 13 11 11 9 9 11 14 18 12 14 17 15 16 19 17 19 17 19 22 36 38 41 46 49 58 48 46 47 49 49 49 51 54 55 56 57 58 59 59 61 62 64 64 66 67 68 69 71 72 72 72 70 73 71 71 73 73 72 70 70 71 70 69 71 73 71 70 70 71 71 70 70 68 67 67 68 67 69 69 69 67 70 70
22 24 23 14 11 9 10 13 18 17 17 16 15 14 16 14 15 19 19 19 17 29 37 43 42 45 49 50 48 47 46 47 49 49 49 52 54 55 56 56 57 59 60 61 62 63 64 66 68 69 70 71 73 72 72 72 69 70 72 73 70 72 69 72 71 68 71 72 72 72 70 71 71 71 69 66 66 64 64 66 66 69 68 65 65 68
36 21 20 16 15 13 15 13 15 17 17 16 16 17 14 12 13 15 18 25 26 38 40 41 42 46 51 51 48 47 48 46 48 48 49 51 52 53 55 55 56 57 59 60 62 63 64 64 65 68 69 70 71 73 74 73 72 72 70 69 70 70 69 71 75 72 73 73 72 68 70 72 72 70 68 65 64 64 64 64 66 67 66 64 63 64
19 27 26 23 19 16 14 16 14 14 15 15 14 16 16 18 19 20 21 28 27 23 38 39 40 44 47 49 48 47 45 45 46 46 48 48 50 51 53 53 53 56 58 59 61 62 63 63 64 65 66 68 70 70 71 71 72 73 73 72 70 73 73 73 74 74 74 74 73 72 69 67 69 69 68 65 62 62 62 62 64 66 65 64 62 64
23 24 27 22 18 16 17 14 17 15 14 15 16 14 17 17 20 22 22 30 24 31 40 41 44 47 47 48 46 46 45 46 45 46 48 49 50 50 51 52 53 54 56 57 58 60 61 62 63 64 65 66 66 69 70 71 71 72 73 72 73 72 70 74 74 74 74 74 74 73 72 70 66 66 67 66 62 60 60 61 62 65 66 65 63 64
25 24 33 33 28 26 29 29 14 17 14 14 14 13 15 16 17 21 25 27 29 34 41 44 45 45 46 45 44 44 45 45 45 46 46 47 49 50 52 52 52 53 54 54 56 58 60 61 62 63 64 65 65 65 67 69 70 70 71 71 72 73 71 71 74 74 74 74 74 74 74 71 69 65 64 66 64 60 60 59 59 62 64 65 65 63
29 23 25 32 28 23 19 19 16 19 14 12 10 12 15 16 19 22 22 22 37 28 43 46 47 44 44 43 44 45 45 45 45 46 46 47 47 48 50 52 54 52 53 54 55 56 57 59 61 63 64 66 69 68 67 67 67 69 70 70 72 72 71 72 72 73 73 74 74 74 74 74 72 71 67 67 69 66 60 59 59 61 64 65 65 63
27 20 17 18 20 18 15 14 14 14 16 12 13 14 15 15 18 21 23 20 29 31 40 47 47 45 44 44 44 46 46 46 44 45 46 47 48 49 50 49 50 50 51 52 54 56 56 57 59 59 60 61 62 64 66 66 67 68 69 70 72 71 71 73 73 72 71 73 74 73 73 74 73 73 72 70 70 69 66 62 62 63 64 66 64 61
27 17 19 15 16 15 16 14 15 13 15 15 14 14 14 13 15 16 18 24 29 44 45 44 46 45 45 45 45 46 47 46 46 46 47 46 45 48 48 49 48 49 51 51 53 54 56 56 58 59 59 60 60 61 63 66 66 66 67 68 69 72 72 72 72 72 71 71 73 73 74 74 74 75 75 72 70 72 70 68 64 60 62 63 64 65
19 27 26 20 20 15 14 14 14 14 13 15 13 12 12 10 15 20 22 27 33 40 43 44 45 46 46 47 48 49 49 48 48 48 47 49 46 44 46 47 49 50 50 52 54 54 55 56 56 58 58 58 59 59 59 64 67 67 68 68 68 70 72 71 73 73 72 72 74 75 74 74 74 73 73 74 73 72 73 71 69 68 68 67 66 67
18 23 24 24 21 15 11 11 10 10 9 11 13 11 11 9 11 17 22 27 30 38 43 43 44 44 46 46 47 49 49 49 49 49 48 47 46 48 47 46 48 51 50 51 52 54 54 54 56 56 57 57 58 59 60 62 64 65 68 69 67 71 73 73 72 71 72 72 73 73 74 75 74 74 73 74 74 73 72 73 74 75 77 68 65 70
20 18 23 20 16 14 13 12 7 5 6 6 7 4 10 11 11 14 20 31 34 31 42 40 48 45 45 46 46 47 47 48 49 50 49 49 49 48 48 48 50 49 50 51 52 53 53 54 55 57 56 56 55 58 59 60 62 64 65 68 70 70 68 69 70 69 70 72 73 72 72 73 74 73 73 74 74 75 75 74 73 73 73 71 67 66
28 24 22 20 17 15 13 12 11 12 9 9 10 5 11 9 10 11 21 31 34 34 36 38 44 46 46 45 44 45 46 48 50 51 50 49 49 48 46 49 50 51 50 50 51 52 53 54 56 56 56 57 57 54 56 57 57 60 62 64 65 66 67 67 67 68 68 69 71 72 73 73 73 73 73 73 74 75 75 75 75 73 71 70 72 73
21 24 22 28 18 15 17 14 16 12 10 25 21 22 18 19 13 14 26 33 38 40 41 41 43 45 45 47 46 46 47 47 47 48 50 48 48 46 46 45 46 49 50 51 51 51 53 53 55 56 57 55 56 56 57 57 56 59 60 61 61 62 64 64 65 66 67 68 68 69 69 70 71 72 73 72 73 73 74 75 74 75 74 72 70 71
26 15 21 24 21 19 19 18 21 9 27 25 23 24 25 24 28 31 34 35 36 39 42 42 42 41 44 44 44 46 45 46 46 48 48 47 47 46 42 43 44 44 47 48 50 53 53 52 53 55 58 59 56 53 55 58 58 58 59 60 59 61 62 63 64 63 65 65 66 67 67 68 69 71 72 73 73 72 72 72 72 73 74 74 73 70
29 31 27 22 22 16 20 17 11 33 25 26 26 25 21 22 22 25 27 35 36 38 38 41 43 41 40 42 44 43 41 42 43 46 46 47 45 45 42 44 43 43 43 45 45 51 52 52 52 56 57 56 57 56 54 56 59 60 59 57 57 60 61 62 63 63 64 63 64 66 67 68 68 69 70 72 73 72 72 72 73 74 75 74 75 74
31 29 37 30 21 16 16 19 19 18 14 25 29 26 20 21 25 24 25 27 35 31 35 40 41 40 38 35 37 38 39 38 45 46 46 43 43 44 43 43 41 42 41 42 44 47 50 49 49 52 51 54 55 56 56 57 57 59 61 60 58 60 61 60 61 62 63 63 63 65 67 68 69 69 69 71 72 73 73 72 73 74 74 75 74 74
24 30 36 31 28 22 19 17 16 18 22 30 27 25 26 27 28 28 23 22 34 32 32 36 37 36 35 37 36 38 37 35 39 44 43 41 39 40 42 42 40 39 41 40 43 44 43 47 49 49 49 50 49 53 57 58 57 58 58 59 59 61 62 62 62 61 62 63 64 63 63 67 69 69 70 69 71 73 72 72 72 74 74 74 74 74
23 21 20 17 22 24 22 16 11 26 31 31 29 28 23 25 19 20 13 15 38 33 32 34 35 35 35 39 38 37 34 34 41 41 39 38 38 40 42 43 44 42 42 41 44 44 47 51 49 48 47 48 51 49 52 56 58 57 58 59 58 60 61 62 62 63 64 63 64 63 63 63 66 68 69 69 70 73 73 73 73 74 74 74 74 73
22 23 21 17 14 17 27 20 14 31 35 32 30 25 22 13 15 19 18 33 38 34 34 34 35 36 39 39 35 35 42 43 41 40 38 37 37 40 41 42 44 44 43 43 44 50 47 47 49 47 46 51 53 50 50 52 52 55 57 59 59 59 60 62 64 64 64 64 62 62 63 63 63 64 65 65 71 74 74 74 74 74 74 74 74 74
25 26 26 24 18 15 15 17 15 28 36 33 30 28 25 23 16 12 41 43 40 38 38 36 35 37 39 38 31 36 40 38 38 36 37 37 38 41 40 42 44 45 45 46 48 49 48 46 48 49 48 50 49 50 51 53 56 56 56 56 57 58 60 62 62 64 64 63 62 61 61 63 64 64 64 67 69 70 72 74 73 73 73 73 73 73
26 23 20 20 22 18 22 20 18 23 36 33 34 28 28 26 39 43 44 41 40 41 39 40 40 40 37 38 37 39 37 33 34 35 37 38 38 39 42 44 46 44 45 45 46 47 47 48 48 48 50 49 49 51 53 54 56 56 56 55 56 58 59 61 61 63 64 64 62 62 63 64 63 63 64 66 68 69 69 71 72 73 73 73 73 73
33 27 26 23 25 19 18 17 23 35 36 33 34 32 35 43 44 44 42 40 40 39 39 39 40 38 35 38 35 35 36 36 35 38 39 40 39 40 43 45 45 46 44 44 44 47 47 48 49 49 49 49 52 53 54 55 55 56 56 56 58 57 60 61 60 61 62 63 63 63 63 63 61 62 64 66 68 67 67 68 69 72 73 73 72 72
33 30 40 33 35 31 31 31 35 38 37 35 39 40 43 44 45 43 42 41 40 38 41 38 39 39 37 37 37 38 36 35 36 36 37 39 40 41 42 43 44 45 45 45 44 48 48 47 49 48 49 50 52 53 54 54 54 55 56 57 59 59 58 59 59 60 60 60 60 61 60 60 61 63 66 65 64 65 66 67 68 70 72 73 72 71
34 35 42 37 33 35 34 38 40 37 38 37 34 40 40 42 44 42 40 41 40 40 39 38 36 38 39 39 36 37 35 35 38 36 37 40 41 42 44 44 44 45 44 45 47 47 47 48 49 49 50 51 51 52 54 54 53 54 55 56 58 58 56 56 58 60 60 58 58 60 58 58 58 62 65 64 64 64 66 66 65 66 69 71 71 72
33 32 33 30 33 28 27 38 35 38 38 37 34 37 38 40 42 38 38 37 39 39 39 41 41 41 40 41 38 37 36 37 37 38 42 43 42 43 43 43 44 44 44 45 47 48 48 48 48 49 49 49 50 50 50 52 52 54 56 57 55 56 58 59 58 59 60 60 57 58 58 59 58 59 63 63 62 62 62 64 64 66 68 67 69 69
34 37 33 32 32 29 28 32 34 37 39 40 36 36 37 39 42 40 38 37 39 42 42 42 42 40 38 38 39 39 37 37 38 41 41 42 44 43 44 44 44 44 45 46 47 48 47 48 48 48 49 50 50 50 51 51 52 53 54 53 53 54 57 58 57 56 57 56 57 57 57 59 60 61 59 61 61 60 61 62 63 63 64 64 65 66
39 37 35 36 33 32 33 33 35 36 37 38 38 38 38 37 39 40 39 39 38 42 43 43 41 39 37 35 39 40 40 40 40 42 40 41 42 43 43 43 44 44 46 46 47 47 48 48 48 49 49 49 50 50 51 51 51 51 53 53 55 57 57 57 58 58 57 57 57 57 60 60 59 59 58 58 60 61 64 63 62 63 63 63 66 66
36 34 36 34 34 33 32 39 44 33 31 35 38 39 39 39 38 39 41 40 39 41 43 41 41 39 36 35 38 39 39 42 42 42 39 39 41 42 42 43 44 44 44 45 46 47 47 48 48 48 48 49 50 50 50 51 52 52 50 52 54 56 57 57 57 57 57 56 57 56 55 58 57 57 58 57 59 60 63 64 58 62 64 63 63 60
35 41 39 38 34 32 47 42 44 43 42 41 42 42 42 41 39 38 40 40 40 39 41 42 40 42 40 38 38 39 41 42 42 42 42 40 42 43 43 43 43 43 45 45 45 46 46 47 47 48 48 49 50 50 51 51 50 52 51 54 54 55 56 57 57 56 55 55 55 55 56 55 55 57 60 60 59 61 61 60 64 53 53 54 56 53